STARLINK-2266

Last updated on Sat Apr 24 2021 00:02:02 GMT+0000 (Coordinated Universal Time)

1 47997U 21024W 21113.25001157 .00080955 00000-0 57639-3 0 9994 2 47997 53.0488 55.6908 0000945 74.2492 82.3304 15.73167191 1827

Satellite not in orbit

STARLINK-2266